[[{"header":{"parameterUnit":"m.s-1","parameterCategory":2,"la1":30.2991,"la2":30.254,"lo1":-89.0895,"lo2":-89.0444,"dy":0.0017,"dx":0.0017,"nx":28,"ny":28,"refTime":"2025-05-28T03:00:00:Z","depth":"0","parameterNumber":2,"parameterNumberName":"U-component_of_CURRENTS"},"data":[0,0,0,0,0,0,0,0,0,0,0,0,0,0,0,0,0,0,0,0,0,0,0,0,0,0,0,0,0,0,0,0,0,0,0,0,0,0,0,0,0,0,0,0,0,0,0,0,0,0,0,0,0,0,0,0,0,0,0.1322,0.1323,0,0.1377,0.1377,0.1378,0.139,0.139,0.139,0.1389,0.1465,0.1467,0.1469,0,0,0,0,0,0,0,0,0,0,0,0,0,0.1265,0.1265,0.1322,0.1323,0.1323,0.1376,0.1377,0.1378,0.139,0.139,0.139,0.1389,0.1464,0.1467,0.147,0,0,0,0,0,0,0,0,0,0,0,0,0,0.1301,0.1266,0.1322,0.1336,0.1338,0.1376,0.1377,0.1378,0.1391,0.139,0.1389,0.1389,0.1463,0.1467,0.147,0.1504,0,0,0.1481,0.1482,0,0,0,0,0,0,0,0,0.1299,0.1304,0.1333,0.1335,0.1337,0.1376,0.1385,0.1421,0.1391,0.1371,0.1389,0.1389,0.1437,0.1443,0.1454,0.1507,0.1511,0.1481,0.1483,0.1485,0.1486,0,0,0,0,0,0,0,0.1297,0.1302,0.1344,0.1334,0.1336,0.1352,0.1356,0.1392,0.1407,0.1372,0.1373,0.1379,0.1438,0.1451,0.1456,0.1512,0.1481,0.1484,0.1487,0.1488,0.1681,0.1684,0,0,0,0,0,0,0.1289,0.1299,0.1342,0.1346,0.1316,0.1353,0.1358,0.1364,0.1406,0.1412,0.138,0.138,0.1445,0.1452,0.1459,0.157,0.1485,0.1488,0.149,0.1678,0.1682,0.1685,0,0,0,0,0,0,0.1287,0.1292,0.134,0.1323,0.133,0.1354,0.1362,0.1366,0.1379,0.1412,0.1418,0.1389,0.1445,0.1454,0.152,0.157,0.149,0.1493,0.1675,0.1679,0.1683,0.1747,0,0,0,0,0,0,0.1285,0.1291,0.1296,0.1323,0.1331,0.1376,0.1362,0.1367,0.1383,0.1384,0.1422,0.1428,0.1445,0.1515,0.1524,0.1573,0.1496,0.1671,0.1677,0.1682,0.1741,0.1753,0.1764,0,0,0,0,0,0.1283,0.1293,0.1296,0.1302,0.1336,0.1378,0.1384,0.1399,0.1384,0.1405,0.144,0.1427,0.1557,0.152,0.153,0.1582,0.1668,0.1675,0.1681,0.1736,0.1751,0.1763,0,0,0,0,0,0,0.1267,0.1296,0.13,0.1317,0.135,0.138,0.1394,0.1401,0.1441,0.144,0.1461,0.1473,0.1553,0.1561,0.1519,0.1657,0.1612,0.1621,0.1651,0.1665,0.1675,0.1666,0.1499,0,0,0,0,0,0.1267,0.1286,0.1316,0.1333,0.1344,0.1368,0.1384,0.1399,0.1434,0.1449,0.1484,0.1528,0.1589,0.1618,0.1668,0.1736,0.1732,0.1779,0.179,0.1799,0.1801,0.1868,0.1884,0.1707,0.1707,0.1707,0,0,0.1263,0.1284,0.1292,0.1332,0.1351,0.1401,0.1376,0.1407,0.1468,0.1453,0.1542,0.1567,0.1617,0.1704,0.174,0.1715,0.1843,0.1808,0.1815,0.1812,0.1876,0.1893,0.1908,0.1712,0.1711,0.171,0,0,0.1278,0.1284,0.131,0.1347,0.1387,0.1417,0.1427,0.1469,0.1503,0.1582,0.1601,0.1656,0.1735,0.1793,0.1828,0.193,0.1901,0.1943,0.1991,0.2056,0.2071,0.2083,0.2071,0.2082,0.1947,0.1947,0.1948,0,0.127,0.1319,0.1326,0.1373,0.1419,0.1428,0.1489,0.1532,0.1601,0.1632,0.1621,0.1745,0.1786,0.1896,0.194,0.1955,0.1955,0.1931,0.2068,0.2081,0.2093,0.2078,0.2089,0.1951,0.1951,0.195,0.195,0,0.1318,0.1365,0.1384,0.1458,0.1508,0.1558,0.1623,0.167,0.1699,0.1734,0.1827,0.188,0.194,0.1979,0.1994,0.2107,0.2064,0.2072,0.2025,0.2114,0.2092,0.2103,0.1957,0.1956,0.1954,0.1953,0,0,0.1282,0.1395,0.1405,0.147,0.1562,0.1612,0.1708,0.1795,0.1835,0.1899,0.196,0.2075,0.2053,0.2093,0.2117,0.2182,0.2265,0.2163,0.2165,0.2133,0.2352,0.213,0.2119,0.2296,0.2299,0.2301,0.2291,0,0.1322,0.1437,0.1488,0.1616,0.1687,0.1742,0.183,0.1905,0.1948,0.2003,0.2051,0.2111,0.2115,0.213,0.2202,0.225,0.2301,0.2263,0.2286,0.2285,0.2064,0.2128,0.1986,0.1949,0.2301,0.2302,0.2304,0,0.1353,0.1442,0.1568,0.1714,0.1744,0.1813,0.193,0.2008,0.2073,0.2096,0.2136,0.2147,0.2239,0.2227,0.2341,0.2311,0.234,0.2371,0.2371,0.2148,0.2084,0.1927,0.1955,0.1908,0.232,0.2318,0.2317,0,0.1348,0.1497,0.1609,0.1662,0.1815,0.187,0.1938,0.2018,0.2076,0.2131,0.2144,0.2224,0.2257,0.233,0.2358,0.2365,0.2451,0.2469,0.2291,0.2273,0.2147,0.2111,0.2117,0.2564,0.2564,0.2564,0.2564,0,0.1379,0.1466,0.1607,0.1672,0.1795,0.1879,0.1972,0.2031,0.2089,0.214,0.2172,0.2211,0.2293,0.2329,0.2368,0.232,0.2455,0.2294,0.2268,0.2158,0.2125,0.207,0.2073,0.2564,0.2564,0.2564,0.2564,0,0.1356,0.1447,0.1587,0.1748,0.1797,0.1876,0.1995,0.2044,0.2085,0.2145,0.216,0.222,0.2244,0.2271,0.2364,0.2296,0.2214,0.2262,0.2068,0.2017,0.1746,0.1756,0.1667,0.1635,0.205,0.2044,0.204,0,0.1353,0.1424,0.1625,0.1709,0.1781,0.1894,0.1963,0.2038,0.2077,0.2148,0.2171,0.2193,0.2201,0.2169,0.207,0.2014,0.2053,0.1814,0.1808,0.1693,0.1693,0.1688,0.1672,0.1674,0.1666,0.166,0.1656,0,0.1366,0.1434,0.1565,0.1733,0.1832,0.1929,0.2013,0.2041,0.2107,0.2127,0.2146,0.215,0.206,0.1905,0.1757,0.1714,0.168,0.1682,0.1676,0.1468,0.1362,0.1329,0.1674,0.1603,0.1609,0.1612,0.1615,0.1617,0.1372,0.1463,0.163,0.1788,0.1888,0.1943,0.1964,0.2012,0.204,0.2007,0.2075,0.1977,0.179,0.1547,0.1475,0.117,0.1307,0.1106,0.1148,0.1168,0.1072,0.1222,0.1045,0.1047,0.1048,0.105,0.1051,0,0.1395,0.1514,0.1672,0.1835,0.1902,0.1948,0.199,0.1951,0.192,0.1869,0.1833,0.1573,0.1357,0.1171,0.0815,0.0682,0.0714,0.0652,0.0702,0.0734,0.0965,0.088,0.0522,0.0522,0.0522,0.0522,0.0522,0.0522,0.1419,0.1569,0.1673,0.1815,0.1888,0.1877,0.1862,0.1786,0.1713,0.1499,0.1296,0.1216,0.102,0.0705,0.0438,0.0396,0.0433,0.0325,0.0435,0.0668,0.0717,0.0765,0.0688,0.0295,0.0295,0.0171,0.017,0.0169]},{"header":{"parameterUnit":"m.s-1","parameterCategory":2,"la1":30.2991,"la2":30.254,"lo1":-89.0895,"lo2":-89.0444,"dy":0.0017,"dx":0.0017,"nx":28,"ny":28,"refTime":"2025-05-28T03:00:00:Z","depth":"0","parameterNumber":3,"parameterNumberName":"V-component_of_CURRENTS"},"data":[0,0,0,0,0,0,0,0,0,0,0,0,0,0,0,0,0,0,0,0,0,0,0,0,0,0,0,0,0,0,0,0,0,0,0,0,0,0,0,0,0,0,0,0,0,0,0,0,0,0,0,0,0,0,0,0,0,0,0.0089,0.0089,0,0.0091,0.0091,0.009,0.0092,0.0092,0.0092,0.0093,0.0063,0.0062,0.0061,0,0,0,0,0,0,0,0,0,0,0,0,0,0.0072,0.0072,0.0089,0.0089,0.0089,0.0091,0.0091,0.009,0.0092,0.0092,0.0092,0.0093,0.0063,0.0062,0.0061,0,0,0,0,0,0,0,0,0,0,0,0,0,0.0075,0.0072,0.0089,0.0092,0.0092,0.0091,0.0091,0.009,0.0092,0.0092,0.0092,0.0093,0.0064,0.0062,0.0061,0.0046,0,0,0.0057,0.0056,0,0,0,0,0,0,0,0,0.0075,0.0076,0.0091,0.0092,0.0092,0.0093,0.0074,0.0075,0.0092,0.009,0.0093,0.0093,0.0071,0.0069,0.0067,0.0045,0.0044,0.0056,0.0056,0.0055,0.0055,0,0,0,0,0,0,0,0.0075,0.0075,0.0088,0.0091,0.0092,0.0088,0.0088,0.0074,0.0077,0.009,0.0091,0.0094,0.0071,0.0068,0.0066,0.0043,0.0056,0.0055,0.0054,0.0054,-0.0009,-0.001,0,0,0,0,0,0,0.0079,0.0075,0.0088,0.0088,0.0086,0.0088,0.0089,0.0091,0.0078,0.0077,0.0094,0.0094,0.007,0.0068,0.0065,0.0028,0.0055,0.0054,0.0053,-0.0008,-0.0009,-0.001,0,0,0,0,0,0,0.0078,0.008,0.0088,0.0083,0.0084,0.0088,0.0091,0.0091,0.009,0.0081,0.0079,0.0093,0.0071,0.0067,0.0038,0.0027,0.0053,0.0052,-0.0007,-0.0009,-0.001,-0.0034,0,0,0,0,0,0,0.0078,0.008,0.0079,0.0083,0.0085,0.0083,0.009,0.0091,0.0092,0.0092,0.008,0.0077,0.007,0.004,0.0036,0.0026,0.0051,-0.0006,-0.0008,-0.0009,-0.0033,-0.0036,-0.004,0,0,0,0,0,0.0077,0.0079,0.0079,0.0081,0.0085,0.0083,0.0083,0.0086,0.0092,0.0086,0.007,0.0078,0.0028,0.0037,0.0034,0.0023,-0.0006,-0.0007,-0.0009,-0.0031,-0.0036,-0.004,0,0,0,0,0,0,0.0072,0.0079,0.008,0.0084,0.0081,0.0084,0.0083,0.0086,0.007,0.007,0.0061,0.0057,0.0028,0.0027,0.0038,0.0,0.0015,0.0012,-0.0,-0.0005,-0.0008,0.0035,0.0049,0,0,0,0,0,0.007,0.0073,0.0076,0.0077,0.0078,0.008,0.008,0.0081,0.0072,0.0066,0.0054,0.0039,0.0017,0.0008,-0.001,-0.0032,0.0024,-0.004,-0.0043,-0.0046,-0.0014,0.0088,0.0098,-0.0016,-0.0016,-0.0016,0,0,0.0069,0.0073,0.0074,0.0076,0.0077,0.0062,0.008,0.0079,0.0061,0.0064,0.0032,0.0023,0.0007,-0.0022,-0.0033,-0.0023,0.0002,-0.0049,-0.0051,-0.0016,0.0087,0.0099,0.011,-0.0017,-0.0017,-0.0017,0,0,0.0068,0.0071,0.0071,0.0065,0.0066,0.0056,0.0056,0.0053,0.0046,0.0015,0.0012,0.0012,-0.0037,-0.0032,-0.0041,-0.0069,-0.0021,-0.0093,-0.0072,0.0025,0.0037,0.0048,0.0085,0.01,-0.0091,-0.0091,-0.0091,0,0.0064,0.0062,0.0069,0.0063,0.005,0.0051,0.0035,0.0023,0.0007,0.0014,-0.0,-0.0013,-0.0032,-0.0031,-0.0052,-0.0072,-0.0026,-0.0058,0.0026,0.0038,0.005,0.0087,0.0104,-0.0093,-0.0093,-0.0092,-0.0092,0,0.0061,0.0052,0.005,0.0033,0.0019,0.0007,-0.001,-0.0018,-0.003,-0.0027,-0.0023,-0.0033,-0.0022,-0.0045,-0.0066,-0.0006,-0.0009,0.0009,0.0046,0.0061,0.0096,0.0114,-0.0095,-0.0094,-0.0094,-0.0093,0,0,0.0066,0.005,0.0047,0.0033,0.0001,-0.0008,-0.0038,-0.0047,-0.0032,-0.0045,-0.001,-0.0047,-0.001,-0.0014,-0.002,0.0051,0.0138,0.0061,0.0066,0.0113,0.0321,0.0284,0.03,0.018,0.0184,0.0187,0.0294,0,0.0056,0.0037,0.0025,-0.0012,-0.003,-0.0043,-0.0064,-0.0068,-0.0066,-0.0033,-0.0004,0.0015,-0.0014,0.0005,0.007,0.0137,0.0194,0.0106,0.0287,0.0292,0.0273,0.0324,0.0302,0.0395,0.0312,0.0315,0.0318,0,0.0052,0.0035,0.0004,-0.0024,-0.0029,-0.0053,-0.006,-0.0073,-0.003,-0.0014,0.0037,0.0065,0.0142,0.0129,0.0279,0.0226,0.0272,0.0321,0.0327,0.033,0.0292,0.0375,0.0432,0.0431,0.0346,0.0344,0.0342,0,0.0053,0.002,-0.0007,-0.0022,-0.0053,-0.006,-0.0074,-0.0056,-0.0038,0.0024,0.0074,0.0153,0.0225,0.0317,0.0384,0.0353,0.0562,0.0537,0.0539,0.0534,0.0574,0.0566,0.0677,0.0662,0.0662,0.0661,0.0661,0,0.0044,0.0025,-0.0004,-0.0019,-0.0035,-0.0056,-0.0045,-0.0038,0.0013,0.0077,0.0102,0.0192,0.029,0.0399,0.044,0.0551,0.0612,0.0572,0.0586,0.0553,0.0543,0.0589,0.0579,0.0665,0.0664,0.0664,0.0663,0,0.0053,0.0032,0.0007,-0.0025,-0.0033,-0.004,-0.0035,-0.0005,0.0033,0.013,0.0161,0.0268,0.0412,0.0476,0.0638,0.0634,0.0736,0.074,0.0656,0.0658,0.0636,0.0624,0.0766,0.0803,0.0775,0.0775,0.0776,0,0.0055,0.0043,0.0009,0.0005,-0.001,-0.0019,-0.0009,0.0004,0.0051,0.019,0.0259,0.0401,0.0524,0.0698,0.0723,0.0789,0.0782,0.0777,0.0718,0.0662,0.0661,0.0638,0.0657,0.0737,0.0737,0.0737,0.0737,0,0.006,0.0053,0.0038,0.0028,0.0025,0.0035,0.0057,0.01,0.0164,0.0266,0.0437,0.0547,0.0673,0.0757,0.079,0.0808,0.0771,0.0772,0.0782,0.0707,0.0633,0.0663,0.0588,0.0735,0.0735,0.0736,0.0736,0.0736,0.0072,0.007,0.0059,0.0054,0.0062,0.011,0.0158,0.0223,0.0332,0.0519,0.0575,0.0753,0.0773,0.0829,0.0835,0.0771,0.0787,0.0747,0.0753,0.0746,0.0747,0.0629,0.0746,0.0746,0.0747,0.0747,0.0747,0,0.0082,0.0088,0.0088,0.0098,0.0133,0.0132,0.0222,0.031,0.048,0.0626,0.078,0.0867,0.0892,0.0863,0.0767,0.0751,0.0752,0.0746,0.073,0.0767,0.0732,0.0692,0.0723,0.0723,0.0722,0.0722,0.0722,0.0722,0.009,0.0099,0.0103,0.0161,0.0187,0.0282,0.0358,0.0502,0.0626,0.0827,0.0919,0.0977,0.093,0.0778,0.0725,0.0728,0.077,0.0736,0.0792,0.0752,0.0753,0.0753,0.0715,0.075,0.075,0.0822,0.0822,0.0823]}],[{"header":{"parameterUnit":"m.s-1","parameterCategory":2,"la1":30.2991,"la2":30.254,"lo1":-89.0895,"lo2":-89.0444,"dy":0.0017,"dx":0.0017,"nx":28,"ny":28,"refTime":"2025-05-28T03:00:00:Z","depth":"2","parameterNumber":2,"parameterNumberName":"U-component_of_CURRENTS"},"data":[0,0,0,0,0,0,0,0,0,0,0,0,0,0,0,0,0,0,0,0,0,0,0,0,0,0,0,0,0,0,0,0,0,0,0,0,0,0,0,0,0,0,0,0,0,0,0,0,0,0,0,0,0,0,0,0,0,0,0.0869,0.0869,0,0.0917,0.0917,0.0918,0.0945,0.0945,0.0944,0.0944,0.0947,0.0947,0.0947,0,0,0,0,0,0,0,0,0,0,0,0,0,0.0875,0.0875,0.0869,0.0869,0.087,0.0916,0.0917,0.0918,0.0945,0.0945,0.0944,0.0944,0.0947,0.0947,0.0947,0,0,0,0,0,0,0,0,0,0,0,0,0,0.0896,0.0875,0.0869,0.0886,0.0888,0.0916,0.0917,0.0919,0.0945,0.0945,0.0944,0.0944,0.0946,0.0947,0.0947,0.0955,0,0,0.0948,0.0948,0,0,0,0,0,0,0,0,0.0894,0.0896,0.0884,0.0885,0.0887,0.0922,0.092,0.0928,0.0945,0.0927,0.0944,0.0944,0.0932,0.0934,0.0949,0.0955,0.0956,0.0948,0.0949,0.0949,0.0949,0,0,0,0,0,0,0,0.0893,0.0894,0.0891,0.0884,0.0886,0.0917,0.0919,0.0923,0.0932,0.0928,0.093,0.093,0.0933,0.0948,0.0949,0.0956,0.0948,0.0949,0.0949,0.0949,0.0965,0.0965,0,0,0,0,0,0,0.0877,0.0892,0.089,0.0892,0.0887,0.0916,0.0919,0.0914,0.0933,0.0935,0.093,0.0931,0.0948,0.0948,0.0949,0.0962,0.0949,0.0949,0.0949,0.0965,0.0965,0.0965,0,0,0,0,0,0,0.0877,0.0876,0.0888,0.0892,0.0895,0.0916,0.091,0.0915,0.0932,0.0935,0.0936,0.0942,0.0947,0.0948,0.0978,0.0962,0.0949,0.095,0.0965,0.0965,0.0965,0.0986,0,0,0,0,0,0,0.0877,0.0876,0.0875,0.089,0.0894,0.0904,0.091,0.0916,0.0931,0.0932,0.0945,0.0945,0.0947,0.0978,0.0979,0.0962,0.095,0.0964,0.0965,0.0965,0.0985,0.0987,0.0989,0,0,0,0,0,0.0877,0.0874,0.0875,0.0875,0.0889,0.0904,0.0909,0.0926,0.0931,0.0941,0.0967,0.0945,0.0979,0.098,0.098,0.0963,0.0964,0.0965,0.0965,0.0984,0.0987,0.0989,0,0,0,0,0,0,0.0874,0.0877,0.0878,0.0875,0.0887,0.0907,0.0923,0.0928,0.0958,0.097,0.0968,0.0971,0.0982,0.0977,0.0978,0.0968,0.0959,0.0959,0.0973,0.0975,0.0977,0.0989,0.095,0,0,0,0,0,0.0872,0.0873,0.088,0.0879,0.0888,0.0906,0.0917,0.0931,0.0953,0.0966,0.0985,0.0993,0.0984,0.0987,0.0991,0.0999,0.1047,0.0982,0.0984,0.0985,0.0995,0.1132,0.1149,0.0967,0.0967,0.0967,0,0,0.0874,0.0872,0.0876,0.088,0.0897,0.0896,0.0914,0.0938,0.0937,0.0961,0.0992,0.1007,0.0989,0.1,0.1001,0.0995,0.1047,0.0986,0.0987,0.0996,0.1134,0.1153,0.1169,0.0967,0.0967,0.0967,0,0,0.0881,0.0877,0.0888,0.0903,0.0924,0.0908,0.0911,0.0947,0.0967,0.1004,0.1003,0.1032,0.1037,0.1029,0.1015,0.103,0.1056,0.1007,0.1026,0.1158,0.1176,0.1192,0.1221,0.124,0.1006,0.1006,0.1006,0,0.0888,0.0878,0.0894,0.0915,0.0914,0.0905,0.0911,0.0919,0.0965,0.0997,0.1017,0.1065,0.1049,0.1042,0.1038,0.1033,0.1094,0.1018,0.1166,0.1183,0.1199,0.1226,0.1247,0.1007,0.1007,0.1007,0.1007,0,0.0898,0.0901,0.091,0.0905,0.0916,0.0915,0.0921,0.0948,0.0966,0.0993,0.1049,0.1075,0.1111,0.1083,0.106,0.1127,0.1124,0.116,0.1169,0.122,0.1242,0.1264,0.1009,0.1008,0.1008,0.1008,0,0,0.0888,0.0904,0.0914,0.0932,0.0908,0.0933,0.0918,0.0921,0.095,0.1015,0.1081,0.1069,0.1131,0.1119,0.1108,0.1192,0.1319,0.1221,0.1228,0.1262,0.1566,0.1268,0.1261,0.1414,0.1419,0.1423,0.1518,0,0.088,0.0926,0.0901,0.0917,0.0945,0.0927,0.0921,0.095,0.0971,0.1043,0.1089,0.1146,0.1121,0.1166,0.1246,0.1317,0.1386,0.1286,0.1501,0.1505,0.1247,0.128,0.1206,0.1261,0.1539,0.1542,0.1545,0,0.0889,0.0926,0.0951,0.0973,0.098,0.0969,0.0991,0.0986,0.1043,0.1091,0.1167,0.1218,0.1301,0.1311,0.1482,0.1436,0.1499,0.1551,0.1558,0.1293,0.1247,0.1265,0.1289,0.158,0.1577,0.1575,0.1572,0,0.0932,0.0952,0.0966,0.0979,0.0995,0.1012,0.0999,0.1035,0.1042,0.1144,0.1199,0.1316,0.141,0.154,0.1594,0.1596,0.1785,0.1813,0.1588,0.1565,0.1543,0.1506,0.1963,0.1963,0.1962,0.1962,0.1962,0,0.092,0.0953,0.1007,0.1041,0.1053,0.1088,0.1092,0.1103,0.1147,0.119,0.1246,0.1327,0.1499,0.1596,0.1651,0.1639,0.1845,0.1582,0.1584,0.153,0.1493,0.1814,0.1795,0.1966,0.1965,0.1964,0.1963,0,0.0947,0.0965,0.1017,0.1075,0.1072,0.1113,0.1095,0.1119,0.1164,0.1231,0.1279,0.1396,0.1511,0.1568,0.1766,0.1678,0.1719,0.1663,0.1501,0.1475,0.1397,0.1378,0.1452,0.1443,0.1435,0.1428,0.1423,0,0.0944,0.0985,0.1052,0.1055,0.1059,0.1097,0.1094,0.112,0.1148,0.1272,0.1323,0.1438,0.1476,0.1515,0.1467,0.1434,0.1553,0.1267,0.1217,0.1357,0.1354,0.1347,0.134,0.1215,0.1208,0.1203,0.1198,0,0.0949,0.0985,0.1015,0.1056,0.1062,0.1056,0.1088,0.1099,0.1175,0.1233,0.1349,0.1391,0.1384,0.1295,0.1136,0.1115,0.1248,0.1133,0.1463,0.1271,0.1118,0.1117,0.1123,0.1148,0.1153,0.1157,0.1159,0.1161,0.0929,0.0952,0.1007,0.1028,0.1037,0.105,0.1042,0.1086,0.1121,0.1186,0.1282,0.125,0.1216,0.09,0.0841,0.0757,0.0848,0.0806,0.0835,0.0866,0.0737,0.057,0.0471,0.0472,0.0473,0.0474,0.0474,0,0.0938,0.0957,0.0969,0.0998,0.1007,0.1061,0.1051,0.103,0.1075,0.1076,0.1106,0.0894,0.0745,0.0712,0.051,0.0385,0.0506,0.0345,0.0572,0.0617,0.0659,0.0531,0.0205,0.0204,0.0204,0.0203,0,0,0.0928,0.095,0.0974,0.0979,0.1023,0.1031,0.104,0.0991,0.0933,0.0845,0.0771,0.0721,0.068,0.0455,0.038,0.0291,0.047,0.0251,0.0469,0.0788,0.083,0.0913,0.0758,0,0,0,0,0]},{"header":{"parameterUnit":"m.s-1","parameterCategory":2,"la1":30.2991,"la2":30.254,"lo1":-89.0895,"lo2":-89.0444,"dy":0.0017,"dx":0.0017,"nx":28,"ny":28,"refTime":"2025-05-28T03:00:00:Z","depth":"2","parameterNumber":3,"parameterNumberName":"V-component_of_CURRENTS"},"data":[0,0,0,0,0,0,0,0,0,0,0,0,0,0,0,0,0,0,0,0,0,0,0,0,0,0,0,0,0,0,0,0,0,0,0,0,0,0,0,0,0,0,0,0,0,0,0,0,0,0,0,0,0,0,0,0,0,0,-0.0035,-0.0035,0,-0.0028,-0.0028,-0.0028,-0.0024,-0.0024,-0.0023,-0.0023,-0.0061,-0.0062,-0.0063,0,0,0,0,0,0,0,0,0,0,0,0,0,-0.0049,-0.0049,-0.0035,-0.0035,-0.0034,-0.0028,-0.0028,-0.0028,-0.0024,-0.0024,-0.0023,-0.0023,-0.0061,-0.0062,-0.0063,0,0,0,0,0,0,0,0,0,0,0,0,0,-0.0044,-0.0049,-0.0035,-0.003,-0.003,-0.0028,-0.0028,-0.0028,-0.0024,-0.0024,-0.0023,-0.0023,-0.006,-0.0062,-0.0064,-0.008,0,0,-0.0069,-0.007,0,0,0,0,0,0,0,0,-0.0044,-0.0044,-0.0031,-0.0031,-0.003,-0.0025,-0.0047,-0.0047,-0.0024,-0.0028,-0.0023,-0.0023,-0.0052,-0.0055,-0.0056,-0.0082,-0.0083,-0.0069,-0.007,-0.0071,-0.0071,0,0,0,0,0,0,0,-0.0045,-0.0044,-0.0034,-0.0031,-0.003,-0.003,-0.0029,-0.0047,-0.0044,-0.0027,-0.0027,-0.0023,-0.0052,-0.0054,-0.0057,-0.0084,-0.0069,-0.0071,-0.0072,-0.0072,-0.0161,-0.0162,0,0,0,0,0,0,-0.0042,-0.0044,-0.0034,-0.0033,-0.0035,-0.003,-0.0029,-0.0028,-0.0043,-0.0044,-0.0024,-0.0023,-0.0051,-0.0055,-0.0058,-0.0119,-0.0071,-0.0073,-0.0074,-0.0159,-0.0161,-0.0162,0,0,0,0,0,0,-0.0043,-0.0041,-0.0034,-0.0037,-0.0036,-0.003,-0.0029,-0.0028,-0.0028,-0.0039,-0.0041,-0.0023,-0.0051,-0.0056,-0.0095,-0.0119,-0.0073,-0.0075,-0.0158,-0.016,-0.0162,-0.0214,0,0,0,0,0,0,-0.0043,-0.0042,-0.0043,-0.0037,-0.0036,-0.0037,-0.0029,-0.0028,-0.0025,-0.0025,-0.004,-0.0043,-0.0051,-0.0092,-0.0097,-0.012,-0.0076,-0.0156,-0.0159,-0.0161,-0.0211,-0.0218,-0.0224,0,0,0,0,0,-0.0044,-0.0042,-0.0043,-0.0042,-0.0037,-0.0037,-0.0037,-0.0032,-0.0025,-0.003,-0.0054,-0.0042,-0.011,-0.0095,-0.01,-0.0124,-0.0155,-0.0158,-0.0161,-0.0208,-0.0216,-0.0224,0,0,0,0,0,0,-0.0047,-0.0041,-0.0042,-0.0039,-0.0041,-0.0036,-0.0034,-0.0032,-0.0051,-0.0053,-0.0064,-0.007,-0.0112,-0.0111,-0.0095,-0.0157,-0.0128,-0.0132,-0.0163,-0.0171,-0.0177,-0.0127,-0.0078,0,0,0,0,0,-0.0049,-0.0048,-0.0046,-0.0045,-0.0043,-0.004,-0.0038,-0.0038,-0.005,-0.0056,-0.0074,-0.0096,-0.0127,-0.0143,-0.0165,-0.0201,-0.013,-0.0218,-0.0225,-0.023,-0.0193,-0.0092,-0.0085,-0.0172,-0.0172,-0.0172,0,0,-0.005,-0.0047,-0.0046,-0.0046,-0.0043,-0.0053,-0.0039,-0.0037,-0.006,-0.0059,-0.01,-0.0118,-0.0141,-0.0188,-0.0205,-0.0191,-0.0179,-0.0234,-0.0238,-0.0197,-0.0094,-0.0085,-0.0077,-0.0174,-0.0174,-0.0173,0,0,-0.005,-0.0048,-0.0048,-0.0055,-0.0054,-0.0057,-0.0057,-0.0062,-0.0077,-0.0119,-0.0129,-0.0145,-0.0206,-0.0213,-0.023,-0.0277,-0.0214,-0.0306,-0.03,-0.0205,-0.0195,-0.0186,-0.0122,-0.0106,-0.031,-0.0311,-0.0311,0,-0.0052,-0.0056,-0.0049,-0.0057,-0.007,-0.0061,-0.0077,-0.0092,-0.0117,-0.0126,-0.014,-0.0182,-0.0207,-0.0233,-0.0265,-0.0287,-0.0231,-0.0274,-0.0208,-0.0197,-0.0186,-0.0122,-0.0104,-0.0313,-0.0313,-0.0313,-0.0313,0,-0.0058,-0.0066,-0.0066,-0.008,-0.0095,-0.0103,-0.0126,-0.0141,-0.016,-0.0168,-0.0195,-0.0219,-0.0228,-0.0261,-0.0288,-0.0249,-0.0236,-0.0224,-0.0179,-0.0179,-0.0114,-0.0094,-0.0318,-0.0317,-0.0316,-0.0315,0,0,-0.005,-0.0067,-0.0069,-0.0087,-0.0111,-0.0123,-0.016,-0.018,-0.0177,-0.0209,-0.0197,-0.0263,-0.0237,-0.025,-0.0271,-0.0207,-0.0119,-0.0194,-0.0187,-0.0112,0.0079,0.0014,0.003,-0.0093,-0.0089,-0.0086,0.0081,0,-0.0059,-0.0083,-0.0094,-0.013,-0.0149,-0.0165,-0.0194,-0.0213,-0.0223,-0.0207,-0.0207,-0.0207,-0.0249,-0.0245,-0.0191,-0.012,-0.0062,-0.0166,0.0055,0.0062,0.0021,0.0054,0.0015,0.0155,0.0101,0.0105,0.0107,0,-0.0064,-0.0085,-0.0121,-0.0158,-0.0165,-0.019,-0.0214,-0.0235,-0.0212,-0.0212,-0.0186,-0.0167,-0.011,-0.0129,0.0023,-0.0041,0.0016,0.0072,0.008,0.0069,0.0037,0.0153,0.0195,0.0142,0.0139,0.0137,0.0134,0,-0.0069,-0.0105,-0.0138,-0.0155,-0.0191,-0.0214,-0.0233,-0.0233,-0.0228,-0.0188,-0.0142,-0.0086,-0.0018,0.0071,0.0148,0.0107,0.0345,0.0309,0.0304,0.0299,0.0338,0.033,0.0442,0.0441,0.0441,0.044,0.044,0,-0.0079,-0.0101,-0.0142,-0.0162,-0.0193,-0.0223,-0.0229,-0.0235,-0.0197,-0.0137,-0.013,-0.0037,0.0047,0.0168,0.0213,0.0328,0.0403,0.0337,0.0355,0.0308,0.0295,0.0345,0.0332,0.0447,0.0445,0.0444,0.0443,0,-0.007,-0.0095,-0.0129,-0.0178,-0.0194,-0.0217,-0.0229,-0.0209,-0.0182,-0.0088,-0.0062,0.0052,0.0209,0.0271,0.0449,0.0427,0.0529,0.0541,0.0453,0.0456,0.0399,0.0381,0.0571,0.0571,0.0571,0.057,0.057,0,-0.0067,-0.0085,-0.0135,-0.015,-0.0173,-0.0204,-0.0204,-0.0206,-0.016,-0.0013,0.0061,0.0215,0.0353,0.0539,0.0534,0.0599,0.059,0.0562,0.0464,0.0423,0.0422,0.0404,0.0386,0.0491,0.049,0.049,0.0489,0,-0.0062,-0.0073,-0.0103,-0.0128,-0.0146,-0.0147,-0.0141,-0.0091,-0.0031,0.0092,0.0303,0.0429,0.0536,0.0597,0.0593,0.0609,0.0537,0.0544,0.0609,0.0428,0.0351,0.0347,0.0333,0.0482,0.0483,0.0483,0.0484,0.0484,-0.0052,-0.0063,-0.0088,-0.0108,-0.0114,-0.0063,-0.0006,0.0063,0.0201,0.0406,0.0483,0.0645,0.0608,0.0615,0.0595,0.051,0.0525,0.0478,0.048,0.0483,0.0408,0.0331,0.0444,0.0444,0.0445,0.0445,0.0445,0,-0.0043,-0.0047,-0.0061,-0.0065,-0.0029,-0.0042,0.0066,0.0176,0.0405,0.0514,0.0698,0.0681,0.069,0.0621,0.0476,0.0413,0.0405,0.0392,0.0388,0.0395,0.0401,0.032,0.0335,0.0334,0.0334,0.0334,0,0,-0.0038,-0.0039,-0.0041,0.0018,0.0038,0.0152,0.0251,0.0426,0.0536,0.0717,0.0761,0.0806,0.0695,0.0572,0.0488,0.0403,0.0415,0.0387,0.0479,0.0491,0.0498,0.0451,0.0333,0,0,0,0,0]}],[{"header":{"parameterUnit":"m.s-1","parameterCategory":2,"la1":30.2991,"la2":30.254,"lo1":-89.0895,"lo2":-89.0444,"dy":0.0017,"dx":0.0017,"nx":28,"ny":28,"refTime":"2025-05-28T03:00:00:Z","depth":"4","parameterNumber":2,"parameterNumberName":"U-component_of_CURRENTS"},"data":[0,0,0,0,0,0,0,0,0,0,0,0,0,0,0,0,0,0,0,0,0,0,0,0,0,0,0,0,0,0,0,0,0,0,0,0,0,0,0,0,0,0,0,0,0,0,0,0,0,0,0,0,0,0,0,0,0,0,0.0126,0.0126,0,0.0081,0.008,0.0079,0.0088,0.0089,0.009,0.0091,0.0033,0.0031,0.0028,0,0,0,0,0,0,0,0,0,0,0,0,0,0.0203,0.0201,0.0126,0.0126,0.0126,0.0081,0.008,0.0079,0.0088,0.0089,0.009,0.0091,0.0034,0.0031,0.0028,0,0,0,0,0,0,0,0,0,0,0,0,0,0.0162,0.0201,0.0126,0.0127,0.0126,0.0081,0.008,0.0079,0.0087,0.0089,0.0091,0.0092,0.0035,0.0031,0.0027,-0.0028,0,0,0.0016,0.0014,0,0,0,0,0,0,0,0,0.0164,0.0159,0.0127,0.0127,0.0126,0.0094,0.0086,0.0043,0.0087,0.0099,0.0091,0.0093,0.0053,0.0048,0.0032,-0.0031,-0.0033,0.0015,0.0013,0.0012,0.001,0,0,0,0,0,0,0,0.0167,0.0161,0.0105,0.0126,0.0126,0.0123,0.0119,0.0077,0.0065,0.0098,0.0099,0.0098,0.0052,0.0035,0.0031,-0.0034,0.0016,0.0012,0.001,0.0008,-0.0156,-0.0158,0,0,0,0,0,0,0.0177,0.0163,0.0107,0.0104,0.0153,0.012,0.0116,0.01,0.0066,0.0063,0.0097,0.0099,0.0041,0.0035,0.0029,-0.0016,0.0012,0.0008,0.0006,-0.0154,-0.0157,-0.0159,0,0,0,0,0,0,0.0178,0.0172,0.0109,0.0136,0.0128,0.0118,0.01,0.0099,0.01,0.0066,0.0062,0.0103,0.0042,0.0034,-0.0034,-0.0019,0.0006,0.0003,-0.0152,-0.0155,-0.0158,-0.012,0,0,0,0,0,0,0.0181,0.0172,0.0171,0.0136,0.0127,0.0064,0.0099,0.0097,0.0097,0.0099,0.0068,0.0064,0.0043,-0.0029,-0.0038,-0.0024,-0.0,-0.0149,-0.0153,-0.0157,-0.0119,-0.0122,-0.0124,0,0,0,0,0,0.0183,0.017,0.0171,0.0165,0.0123,0.0063,0.0056,0.0054,0.0096,0.0068,0.0043,0.0066,-0.0058,-0.0035,-0.0045,-0.0031,-0.0147,-0.0152,-0.0157,-0.0118,-0.0121,-0.0124,0,0,0,0,0,0,0.0206,0.0168,0.0169,0.0147,0.0102,0.0065,0.0053,0.0061,0.0023,0.0028,0.0023,0.0012,-0.0039,-0.0059,-0.0032,-0.0096,-0.0093,-0.01,-0.006,-0.0063,-0.0066,-0.0004,-0.0003,0,0,0,0,0,0.0209,0.0184,0.0144,0.0121,0.0105,0.0085,0.0071,0.0053,0.0018,0.0007,-0.0016,-0.0043,-0.0071,-0.0085,-0.0137,-0.0177,-0.0149,-0.0175,-0.0177,-0.0179,-0.0141,-0.0076,-0.0066,-0.0175,-0.0175,-0.0175,0,0,0.0213,0.0189,0.0177,0.0124,0.01,0.0038,0.0079,0.0034,-0.0012,0.0002,-0.0063,-0.0066,-0.0092,-0.0142,-0.0162,-0.0149,-0.0152,-0.0185,-0.0185,-0.0145,-0.0079,-0.0067,-0.0057,-0.0178,-0.0177,-0.0177,0,0,0.0187,0.0183,0.0146,0.0099,0.0046,0.0013,0.0006,-0.0045,-0.0056,-0.0132,-0.0112,-0.0101,-0.0186,-0.0167,-0.0171,-0.022,-0.0177,-0.0241,-0.0185,-0.0124,-0.0112,-0.0101,-0.0111,-0.0101,-0.0228,-0.0228,-0.0228,0,0.0203,0.0133,0.0124,0.0064,0.002,0.0004,-0.0066,-0.0096,-0.0165,-0.0144,-0.0164,-0.0166,-0.0188,-0.0156,-0.0168,-0.0214,-0.0194,-0.0161,-0.0118,-0.0106,-0.0095,-0.0107,-0.0096,-0.0227,-0.0227,-0.0227,-0.0227,0,0.0129,0.0071,0.0042,-0.0045,-0.0091,-0.0164,-0.0211,-0.0239,-0.0242,-0.0232,-0.0212,-0.0225,-0.0183,-0.02,-0.0197,-0.0118,-0.0139,-0.0132,-0.0088,-0.008,-0.0097,-0.0086,-0.0225,-0.0226,-0.0226,-0.0226,0,0,0.0163,0.0019,0.0009,-0.0056,-0.0162,-0.021,-0.0272,-0.0301,-0.0265,-0.0299,-0.0236,-0.0241,-0.0145,-0.0141,-0.0108,-0.0048,0.0023,-0.0039,-0.0037,-0.0011,0.0123,0.0059,0.0064,0.006,0.0063,0.0066,0.0061,0,0.0103,-0.0036,-0.0088,-0.0223,-0.0307,-0.0335,-0.0371,-0.0382,-0.0362,-0.0311,-0.0232,-0.0176,-0.0154,-0.009,-0.0024,0.0018,0.0064,0.0021,0.008,0.0081,0.0058,0.008,0.0076,0.0069,0.0072,0.0074,0.0075,0,0.0043,-0.0053,-0.0196,-0.0309,-0.0333,-0.0395,-0.0403,-0.0429,-0.0336,-0.0289,-0.0169,-0.0103,0.0012,0.0016,0.0133,0.0112,0.0137,0.0152,0.0152,0.0107,0.0041,0.0069,0.0095,0.0094,0.0092,0.0091,0.009,0,0.0039,-0.0119,-0.0237,-0.0293,-0.0414,-0.0432,-0.045,-0.0395,-0.0353,-0.0222,-0.0153,-0.0018,0.0059,0.0137,0.0187,0.0182,0.0279,0.0263,0.0213,0.0204,0.0251,0.024,0.035,0.035,0.0351,0.0351,0.0351,0,-0.0025,-0.0112,-0.024,-0.0318,-0.0388,-0.0429,-0.0409,-0.0389,-0.0281,-0.0204,-0.0096,-0.0025,0.0107,0.0171,0.0208,0.0243,0.0301,0.0243,0.0226,0.0249,0.0238,0.0255,0.0244,0.035,0.035,0.035,0.035,0,-0.0033,-0.0125,-0.0265,-0.039,-0.0412,-0.0441,-0.0412,-0.0361,-0.0261,-0.0162,-0.0109,0.0007,0.0092,0.0168,0.0265,0.0256,0.0295,0.0286,0.0269,0.0246,0.0161,0.0151,0.0235,0.0233,0.0232,0.0231,0.023,0,-0.0054,-0.0137,-0.0306,-0.0355,-0.0417,-0.0435,-0.0425,-0.0352,-0.0294,-0.0165,-0.0133,-0.0013,0.0056,0.0153,0.0206,0.0261,0.0262,0.0251,0.0257,0.0188,0.0163,0.0155,0.0147,0.0227,0.0227,0.0227,0.0226,0,-0.0105,-0.0165,-0.0285,-0.0381,-0.0422,-0.0436,-0.0422,-0.0375,-0.0274,-0.0205,-0.0091,-0.0013,0.0056,0.0138,0.019,0.0217,0.0252,0.0236,0.0239,0.0245,0.0179,0.0154,0.0148,0.0221,0.0222,0.0222,0.0223,0,-0.0115,-0.0202,-0.0334,-0.0411,-0.0443,-0.0432,-0.0423,-0.0359,-0.0282,-0.0147,-0.0134,-0.0019,0.0057,0.0108,0.0139,0.0186,0.0182,0.0171,0.0177,0.0183,0.0169,0.0078,0.0099,0,0,0,0,0,-0.0128,-0.0234,-0.0331,-0.0418,-0.0427,-0.0437,-0.0421,-0.0389,-0.0322,-0.0232,-0.0153,-0.0078,0.002,0.0049,0.0093,0.0061,0.0147,0.0099,0.0127,0.0193,0.0199,0.0187,0,0,0,0,0,0,-0.0143,-0.0263,-0.0354,-0.0382,-0.0405,-0.0399,-0.0391,-0.0354,-0.0291,-0.0218,-0.0149,-0.01,0.0,0.0032,0.0098,0.0102,0.011,0.0154,0.0152,0.019,0.0195,0.02,0.019,0,0,0,0,0]},{"header":{"parameterUnit":"m.s-1","parameterCategory":2,"la1":30.2991,"la2":30.254,"lo1":-89.0895,"lo2":-89.0444,"dy":0.0017,"dx":0.0017,"nx":28,"ny":28,"refTime":"2025-05-28T03:00:00:Z","depth":"4","parameterNumber":3,"parameterNumberName":"V-component_of_CURRENTS"},"data":[0,0,0,0,0,0,0,0,0,0,0,0,0,0,0,0,0,0,0,0,0,0,0,0,0,0,0,0,0,0,0,0,0,0,0,0,0,0,0,0,0,0,0,0,0,0,0,0,0,0,0,0,0,0,0,0,0,0,0.0042,0.0042,0,0.0104,0.0105,0.0106,0.0116,0.0116,0.0115,0.0114,0.0142,0.0144,0.0145,0,0,0,0,0,0,0,0,0,0,0,0,0,-0.0002,-0.0001,0.0042,0.0042,0.0043,0.0104,0.0106,0.0107,0.0117,0.0115,0.0114,0.0113,0.0142,0.0144,0.0146,0,0,0,0,0,0,0,0,0,0,0,0,0,0.0038,-0.0001,0.0042,0.0052,0.0054,0.0104,0.0106,0.0107,0.0117,0.0115,0.0114,0.0113,0.0141,0.0144,0.0146,0.0187,0,0,0.0153,0.0154,0,0,0,0,0,0,0,0,0.0036,0.004,0.005,0.0052,0.0053,0.0098,0.0101,0.0131,0.0117,0.0097,0.0114,0.0112,0.0123,0.0127,0.0147,0.0188,0.019,0.0153,0.0155,0.0156,0.0156,0,0,0,0,0,0,0,0.0033,0.0038,0.007,0.0051,0.0053,0.0077,0.0081,0.0107,0.0119,0.0098,0.0098,0.01,0.0124,0.0145,0.0148,0.019,0.0153,0.0155,0.0157,0.0158,0.0293,0.0295,0,0,0,0,0,0,0.0016,0.0035,0.0068,0.0072,0.0037,0.0078,0.0083,0.0088,0.0119,0.0122,0.0101,0.01,0.0142,0.0145,0.0149,0.0226,0.0156,0.0158,0.0159,0.0291,0.0294,0.0296,0,0,0,0,0,0,0.0015,0.0018,0.0066,0.0052,0.0059,0.0079,0.0086,0.009,0.0103,0.0121,0.0123,0.0108,0.0141,0.0145,0.0182,0.0225,0.0159,0.0161,0.0289,0.0292,0.0295,0.0362,0,0,0,0,0,0,0.0013,0.0018,0.0018,0.0051,0.0059,0.0098,0.0087,0.0092,0.0105,0.0104,0.0128,0.013,0.014,0.0179,0.0184,0.0227,0.0163,0.0286,0.029,0.0294,0.0357,0.0367,0.0376,0,0,0,0,0,0.0012,0.0019,0.0018,0.0022,0.0058,0.0098,0.0106,0.0119,0.0106,0.0124,0.0142,0.0129,0.0209,0.0182,0.0189,0.0233,0.0284,0.0289,0.0294,0.0353,0.0365,0.0376,0,0,0,0,0,0,0.0003,0.0021,0.0021,0.0033,0.0062,0.0099,0.0113,0.0118,0.0149,0.0148,0.0154,0.0159,0.0216,0.0212,0.0183,0.0285,0.0246,0.0252,0.0289,0.03,0.0309,0.0298,0.0165,0,0,0,0,0,-0.0,0.0008,0.0034,0.0046,0.0058,0.0084,0.01,0.0115,0.0143,0.0154,0.0172,0.0199,0.0246,0.0258,0.0297,0.0342,0.0308,0.0377,0.0386,0.0394,0.039,0.0358,0.0363,0.0312,0.0312,0.0312,0,0,-0.0003,0.001,0.0013,0.0044,0.0066,0.0108,0.0092,0.0125,0.017,0.0154,0.0213,0.0235,0.0267,0.0333,0.0356,0.033,0.0398,0.04,0.0407,0.0398,0.0364,0.0368,0.0372,0.0315,0.0315,0.0314,0,0,0.0009,0.0011,0.0027,0.0059,0.0094,0.0121,0.0128,0.017,0.0196,0.0261,0.0267,0.0301,0.0369,0.0395,0.042,0.0498,0.0455,0.0519,0.055,0.052,0.0522,0.0524,0.0508,0.0507,0.0515,0.0515,0.0515,0,0.0004,0.0034,0.004,0.0077,0.0107,0.0127,0.0169,0.0214,0.0265,0.0295,0.0289,0.0384,0.0403,0.0473,0.0509,0.0519,0.0493,0.0503,0.0528,0.0529,0.053,0.0512,0.0511,0.0519,0.0519,0.0518,0.0518,0,0.0039,0.0068,0.0085,0.0137,0.0171,0.0215,0.0269,0.0321,0.0353,0.0384,0.0458,0.0483,0.0529,0.0553,0.0562,0.0595,0.0574,0.0547,0.0491,0.0539,0.0518,0.0515,0.0525,0.0523,0.0522,0.0521,0,0,0.002,0.0093,0.01,0.014,0.0209,0.0246,0.0334,0.0411,0.0467,0.0513,0.056,0.0643,0.0627,0.0652,0.0654,0.063,0.0628,0.0594,0.0591,0.0563,0.0566,0.0521,0.0514,0.0595,0.0594,0.0594,0.0555,0,0.0049,0.012,0.0152,0.0237,0.0283,0.0344,0.0429,0.0501,0.0554,0.0607,0.0625,0.0677,0.0674,0.0693,0.0673,0.0638,0.0621,0.0641,0.0536,0.0533,0.0475,0.0509,0.0593,0.0553,0.0552,0.0552,0.0551,0,0.0076,0.0124,0.02,0.0305,0.033,0.0398,0.052,0.0603,0.0684,0.0717,0.0746,0.0739,0.0746,0.0716,0.0671,0.068,0.0636,0.0596,0.0592,0.052,0.0483,0.0492,0.0546,0.0546,0.0547,0.0547,0.0547,0,0.0065,0.016,0.0221,0.0257,0.0379,0.0449,0.0536,0.0642,0.0717,0.0776,0.0787,0.0793,0.0782,0.073,0.0663,0.0663,0.0577,0.0563,0.0486,0.0483,0.0502,0.0499,0.052,0.052,0.052,0.052,0.052,0,0.0091,0.0141,0.0232,0.0278,0.0384,0.047,0.0607,0.0682,0.078,0.0819,0.0836,0.0816,0.0777,0.0718,0.0663,0.0566,0.058,0.0494,0.0466,0.0537,0.0539,0.0501,0.0499,0.0519,0.0519,0.0519,0.052,0,0.0079,0.0131,0.021,0.0336,0.0386,0.0472,0.0659,0.0748,0.0829,0.0865,0.0872,0.0839,0.0754,0.0708,0.0609,0.0559,0.0477,0.044,0.0531,0.0508,0.0408,0.0411,0.0356,0.0354,0.0353,0.0351,0.035,0,0.0083,0.0122,0.0238,0.0291,0.0359,0.0512,0.062,0.0767,0.082,0.0847,0.0813,0.0766,0.0721,0.0569,0.0518,0.0434,0.0413,0.0389,0.0397,0.0411,0.039,0.0395,0.04,0.0347,0.0347,0.0346,0.0346,0,0.0095,0.0125,0.0187,0.0291,0.0396,0.0527,0.066,0.0686,0.0796,0.0849,0.0759,0.0698,0.0593,0.0511,0.0462,0.039,0.0416,0.0372,0.0375,0.0382,0.04,0.0381,0.0388,0.034,0.0341,0.0342,0.0342,0,0.0092,0.0127,0.02,0.03,0.0409,0.0492,0.058,0.0635,0.0714,0.0713,0.0663,0.0593,0.0577,0.0483,0.0414,0.0369,0.035,0.0336,0.034,0.0346,0.0355,0.0377,0.0286,0,0,0,0,0,0.01,0.0145,0.0216,0.0316,0.0412,0.049,0.0577,0.0645,0.0696,0.0627,0.0663,0.0564,0.0467,0.0424,0.0366,0.0369,0.0336,0.0297,0.032,0.0308,0.0315,0.0322,0,0,0,0,0,0,0.0107,0.0161,0.0207,0.0315,0.0383,0.0502,0.0554,0.0579,0.0551,0.057,0.0521,0.0547,0.0457,0.051,0.0366,0.0353,0.0355,0.0278,0.0276,0.0304,0.031,0.0316,0.0326,0,0,0,0,0]}]]